CW5456 Hansville WA US current weather conditions

sailwx.info

Wind from 044 at 5 knots gusting 5

Air temperature 13.3° C
Dewpoint 11.0° C

Last reported at 2015-Sep-03 01:55 UTC.
Time now 2015-Sep-03 02:33 UTC

Location: N 47°55' W 122°35'.
View on Google Maps.

See reports from other nearby stations

  
Tides and Currents Weather Stations Pressure Air Temp Water Temp Dewpoint Dewpoint Depression Visibility Wind Speed Wind Dir Waves Ship Positions
date/time (UTC)wind fromknots sea level pressurealtimeterstation pressurevisibilityair tempwater tempwave heightnotes
2015-Sep-03 01:55 044 5 gusting 5 13.3
2015-Sep-03 01:50 037 2 gusting 6 13.3
2015-Sep-03 01:40 033 5 gusting 6 13.3
2015-Sep-03 01:35 030 6 gusting 8 13.3
2015-Sep-03 01:20 009 7 gusting 9 13.3
2015-Sep-03 01:15 360 6 gusting 9 13.3
2015-Sep-03 01:05 016 5 gusting 8 13.3
2015-Sep-03 01:00 032 6 gusting 12 13.3
2015-Sep-03 00:55 005 8 gusting 14 12.8
2015-Sep-03 00:50 344 11 gusting 14 13.3
2015-Sep-03 00:35 325 6 gusting 14 13.3
2015-Sep-03 00:30 330 8 gusting 18 13.3
2015-Sep-03 00:25 317 10 gusting 18 13.3
2015-Sep-03 00:20 313 7 gusting 18 13.3
2015-Sep-03 00:10 309 2 gusting 10 13.3
2015-Sep-03 00:05 322 6 gusting 9 13.3
2015-Sep-02 23:55 277 1 gusting 18 13.3
2015-Sep-02 23:50 317 6 gusting 19 12.8
2015-Sep-02 23:45 329 9 gusting 19 13.3
2015-Sep-02 23:40 360 13 gusting 19 13.3
2015-Sep-02 23:35 341 19 gusting 21 13.3
2015-Sep-02 23:30 342 14 gusting 27 13.3
2015-Sep-02 23:20 336 18 gusting 26 13.3
2015-Sep-02 23:15 336 21 gusting 24 14.4
2015-Sep-02 23:10 336 10 gusting 19 15.0
2015-Sep-02 23:05 331 11 gusting 19 15.0
2015-Sep-02 23:00 322 16 gusting 16 15.0
2015-Sep-02 22:55 309 7 gusting 10 15.6
2015-Sep-02 22:45 016 6 gusting 15 15.6
2015-Sep-02 22:35 005 10 gusting 14 15.6
2015-Sep-02 22:30 342 10 gusting 14 15.6
2015-Sep-02 22:25 302 5 gusting 9 16.1
2015-Sep-02 22:20 234 16.7
2015-Sep-02 22:10 234 0 gusting 9 17.2
2015-Sep-02 22:05 236 2 gusting 3 17.8
2015-Sep-02 22:00 126 18.3
2015-Sep-02 21:50 146 5 gusting 7 18.9
2015-Sep-02 21:40 133 1 gusting 9 19.4
2015-Sep-02 21:35 123 2 gusting 11 19.4
2015-Sep-02 21:30 229 2 gusting 13 19.4
2015-Sep-02 21:25 175 10 gusting 13 18.9
2015-Sep-02 21:15 013 1 gusting 7 18.3
2015-Sep-02 21:10 009 1 gusting 7 17.8
2015-Sep-02 21:00 069 17.8
2015-Sep-02 20:55 066 1 gusting 6 17.8
2015-Sep-02 20:50 075 2 gusting 10 18.9
2015-Sep-02 20:45 061 19.4
2015-Sep-02 20:40 084 6 gusting 9 19.4
2015-Sep-02 20:20 169 2 gusting 9 18.9
2015-Sep-02 20:05 203 3 gusting 7 18.9
2015-Sep-02 20:00 084 2 gusting 8 19.4
2015-Sep-02 19:50 118 5 gusting 11 19.4
2015-Sep-02 19:40 128 5 gusting 10 19.4
2015-Sep-02 19:35 121 5 gusting 10 19.4
2015-Sep-02 19:20 191 1 gusting 10 18.9
2015-Sep-02 19:15 153 3 gusting 8 18.3
2015-Sep-02 19:10 119 3 gusting 7 17.8
2015-Sep-02 19:00 360 2 gusting 8 17.2
2015-Sep-02 18:50 048 0 gusting 5 17.2
2015-Sep-02 18:25 111 2 gusting 9 17.2
2015-Sep-02 18:20 327 17.2
2015-Sep-02 18:15 105 3 gusting 7 17.2
2015-Sep-02 18:05 096 6 gusting 10 16.7
2015-Sep-02 18:00 106 1 gusting 10 16.7
2015-Sep-02 17:55 215 7 gusting 9 16.7
2015-Sep-02 17:45 055 1 gusting 7 16.1
2015-Sep-02 17:40 110 5 gusting 7 15.6
2015-Sep-02 17:35 065 1 gusting 9 15.6
2015-Sep-02 17:30 265 1 gusting 9 15.6
2015-Sep-02 17:25 104 0 gusting 7 15.6
2015-Sep-02 17:20 022 15.6
2015-Sep-02 17:15 187 5 gusting 6 16.1
2015-Sep-02 17:10 088 0 gusting 5 16.1
2015-Sep-02 17:05 350 16.1
2015-Sep-02 16:55 103 3 gusting 9 16.1
2015-Sep-02 16:45 133 9 gusting 9 15.6
2015-Sep-02 16:40 175 15.0
2015-Sep-02 16:35 153 14.4
2015-Sep-02 16:30 092 14.4
2015-Sep-02 16:20 096 14.4
2015-Sep-02 16:15 164 14.4
2015-Sep-02 16:10 130 3 gusting 7 14.4
2015-Sep-02 16:00 125 0 gusting 6 13.9
2015-Sep-02 15:55 142 3 gusting 6 13.9
2015-Sep-02 15:50 138 6 gusting 6 13.9
2015-Sep-02 15:40 140 13.3
2015-Sep-02 15:35 140 1 gusting 7 13.3
2015-Sep-02 15:25 168 0 gusting 8 13.3
2015-Sep-02 15:10 135 2 gusting 10 13.3
2015-Sep-02 15:05 171 8 gusting 8 13.3
2015-Sep-02 15:00 117 6 gusting 7 13.3
2015-Sep-02 14:55 153 1 gusting 6 13.3
2015-Sep-02 14:40 143 2 gusting 6 12.8
2015-Sep-02 14:35 168 3 gusting 6 12.8
2015-Sep-02 14:30 140 12.8
2015-Sep-02 14:20 142 3 gusting 6 12.8
2015-Sep-02 14:15 169 5 gusting 6 12.8
2015-Sep-02 13:55 089 2 gusting 6 12.8
2015-Sep-02 13:50 123 1 gusting 6 12.8
2015-Sep-02 13:45 140 0 gusting 6 12.8
2015-Sep-02 13:40 149 5 gusting 5 12.8
2015-Sep-02 13:35 122 1 gusting 5 12.8
2015-Sep-02 13:30 153 12.8
2015-Sep-02 13:25 130 12.8
2015-Sep-02 13:10 098 1 gusting 2 12.8
2015-Sep-02 13:05 062 12.8
2015-Sep-02 13:00 062 12.8
2015-Sep-02 12:55 061 12.8
2015-Sep-02 12:40 063 13.3
2015-Sep-02 12:35 063 13.3
2015-Sep-02 12:30 060 8 gusting 8 13.3
2015-Sep-02 12:25 049 3 gusting 3 13.3
2015-Sep-02 12:20 049 13.3
2015-Sep-02 12:10 049 3 gusting 5 13.3
2015-Sep-02 12:05 049 3 gusting 5 13.3
2015-Sep-02 12:00 049 2 gusting 3 13.3
2015-Sep-02 11:50 049 13.3
2015-Sep-02 11:35 049 13.3
2015-Sep-02 11:25 049 13.3
2015-Sep-02 11:20 049 0 gusting 6 13.3
2015-Sep-02 11:15 049 6 gusting 7 13.3
2015-Sep-02 11:10 044 5 gusting 7 13.3
2015-Sep-02 11:05 057 7 gusting 7 13.3
2015-Sep-02 10:55 040 5 gusting 6 13.3
2015-Sep-02 10:45 042 6 gusting 7 13.3
2015-Sep-02 10:40 049 6 gusting 8 13.3
2015-Sep-02 10:35 053 6 gusting 8 13.3
2015-Sep-02 10:30 059 6 gusting 7 13.3
2015-Sep-02 10:25 064 5 gusting 6 13.3
2015-Sep-02 10:20 051 5 gusting 6 13.3
2015-Sep-02 10:15 028 5 gusting 7 13.3
2015-Sep-02 10:10 028 5 gusting 7 13.3
2015-Sep-02 10:05 013 6 gusting 7 13.3
2015-Sep-02 10:00 005 5 gusting 7 13.3
2015-Sep-02 09:55 355 5 gusting 9 13.3
2015-Sep-02 09:50 355 3 gusting 9 13.3
2015-Sep-02 09:45 040 5 gusting 7 13.3
2015-Sep-02 09:40 036 6 gusting 7 13.3
2015-Sep-02 09:35 045 6 gusting 7 13.3
2015-Sep-02 09:20 046 7 gusting 7 13.3
2015-Sep-02 09:15 049 6 gusting 8 13.3
2015-Sep-02 09:10 056 6 gusting 9 13.3
2015-Sep-02 09:05 053 7 gusting 9 13.3
2015-Sep-02 09:00 041 6 gusting 8 13.3
2015-Sep-02 08:50 030 7 gusting 7 13.3
2015-Sep-02 08:45 028 3 gusting 6 13.3
2015-Sep-02 08:35 019 3 gusting 5 13.3
2015-Sep-02 08:30 355 2 gusting 5 13.3
2015-Sep-02 08:25 355 13.3
2015-Sep-02 08:20 301 1 gusting 6 13.9
2015-Sep-02 08:05 029 5 gusting 10 13.9
2015-Sep-02 08:00 033 9 gusting 10 13.9
2015-Sep-02 07:55 033 9 gusting 10 13.9
2015-Sep-02 07:50 038 7 gusting 11 13.9
2015-Sep-02 07:40 013 9 gusting 13 13.9
2015-Sep-02 07:35 010 11 gusting 12 13.9
2015-Sep-02 07:30 350 2 gusting 6 13.9
2015-Sep-02 07:25 344 13.9
2015-Sep-02 07:20 344 0 gusting 5 13.9
2015-Sep-02 07:15 351 2 gusting 5 13.9
2015-Sep-02 07:10 209 1 gusting 3 13.9
2015-Sep-02 07:05 209 2 gusting 5 13.9
2015-Sep-02 06:40 033 13.9
2015-Sep-02 06:30 033 13.9
2015-Sep-02 06:25 033 0 gusting 3 13.9
2015-Sep-02 06:20 345 13.9
2015-Sep-02 06:15 345 13.9
2015-Sep-02 06:05 345 13.9
2015-Sep-02 05:55 345 13.9
2015-Sep-02 05:45 345 13.9
2015-Sep-02 05:40 345 13.9
2015-Sep-02 05:35 345 0 gusting 0 13.9
2015-Sep-02 05:25 345 13.9
2015-Sep-02 05:15 345 0 gusting 6 14.4
2015-Sep-02 05:10 345 1 gusting 6 14.4
2015-Sep-02 05:05 342 3 gusting 6 14.4
2015-Sep-02 04:45 355 2 gusting 5 15.0
2015-Sep-02 04:40 240 1 gusting 5 15.0
2015-Sep-02 04:25 161 15.6
2015-Sep-02 04:20 162 0 gusting 2 15.6
2015-Sep-02 04:15 163 15.6
2015-Sep-02 04:05 169 15.6
2015-Sep-02 04:00 264 15.6
2015-Sep-02 03:55 264 15.6
2015-Sep-02 03:50 217 1 gusting 6 15.6
2015-Sep-02 03:45 177 15.6
2015-Sep-02 03:30 190 5 gusting 7 15.6
2015-Sep-02 03:15 248 0 gusting 10 15.6
2015-Sep-02 03:10 206 3 gusting 10 15.6
2015-Sep-02 02:50 186 6 gusting 8 16.1
2015-Sep-02 02:45 180 6 gusting 8 16.1
2015-Sep-02 02:40 099 2 gusting 10 16.1
2015-Sep-02 02:35 144 1 gusting 10 16.1
2015-Sep-02 02:25 186 16.1
2015-Sep-02 02:20 190 7 gusting 12 16.1
2015-Sep-02 02:15 158 6 gusting 9 16.1
2015-Sep-02 01:55 164 1 gusting 12 16.1
2015-Sep-02 01:50 219 6 gusting 12 16.1
2015-Sep-02 01:45 168 0 gusting 11 16.1
2015-Sep-02 01:35 222 3 gusting 9 16.1
2015-Sep-02 01:30 140 1 gusting 9 16.1
2015-Sep-02 01:20 149 15.6
2015-Sep-02 01:15 179 1 gusting 5 15.6
2015-Sep-02 01:10 206 0 gusting 2 15.0
2015-Sep-02 01:05 168 15.0
2015-Sep-02 01:00 047 15.0
2015-Sep-02 00:35 342 15.0
2015-Sep-02 00:25 342 15.0
2015-Sep-02 00:15 342 15.0
2015-Sep-02 00:05 342 1 gusting 2 15.0
2015-Sep-01 23:55 342 0 gusting 0 15.0
2015-Sep-01 23:30 342 2 gusting 3 15.6
2015-Sep-01 23:25 342 15.6
2015-Sep-01 23:20 342 15.6
2015-Sep-01 23:15 342 15.6
2015-Sep-01 23:05 342 15.0
2015-Sep-01 23:00 342 1 gusting 1 15.0
2015-Sep-01 22:55 342 15.0
2015-Sep-01 22:35 015 6 gusting 6 15.0
2015-Sep-01 22:25 005 5 gusting 6 15.0
2015-Sep-01 22:20 350 15.0
2015-Sep-01 22:15 349 15.0
2015-Sep-01 22:10 341 6 gusting 6 14.4
2015-Sep-01 22:05 345 2 gusting 3 14.4
2015-Sep-01 21:55 350 1 gusting 3 15.0
2015-Sep-01 21:43 355 0 gusting 6 15.0
2015-Sep-01 21:38 343 6 gusting 6 15.0
2015-Sep-01 21:33 336 5 gusting 6 15.0
2015-Sep-01 21:28 333 3 gusting 6 15.0
2015-Sep-01 21:23 360 2 gusting 6 15.0
2015-Sep-01 21:18 360 5 gusting 6 15.0
2015-Sep-01 21:14 044 3 gusting 5 15.6
2015-Sep-01 21:08 049 2 gusting 5 15.6
2015-Sep-01 21:03 052 3 gusting 6 15.6
2015-Sep-01 20:59 038 2 gusting 6 15.6
2015-Sep-01 20:53 064 3 gusting 6 15.6
2015-Sep-01 20:48 057 3 gusting 7 15.6
2015-Sep-01 20:38 061 3 gusting 5 15.6
2015-Sep-01 20:33 005 3 gusting 6 15.6
2015-Sep-01 20:29 360 1 gusting 6 15.6
2015-Sep-01 20:23 013 3 gusting 3 15.6
2015-Sep-01 20:19 013 1 gusting 3 15.6
2015-Sep-01 20:13 021 15.6
2015-Sep-01 20:08 021 15.6
2015-Sep-01 20:03 323 0 gusting 3 16.1
2015-Sep-01 19:59 340 16.1
2015-Sep-01 19:53 340 16.7
2015-Sep-01 19:49 317 16.7
2015-Sep-01 19:38 339 2 gusting 7 17.2
2015-Sep-01 19:34 360 1 gusting 9 17.2
2015-Sep-01 19:29 261 3 gusting 9 17.8
2015-Sep-01 19:23 306 2 gusting 9 17.8
2015-Sep-01 19:19 192 5 gusting 9 17.8
2015-Sep-01 19:14 244 7 gusting 14 17.8
2015-Sep-01 19:09 182 7 gusting 14 17.8
2015-Sep-01 19:04 184 5 gusting 10 17.8
2015-Sep-01 18:59 140 17.8
2015-Sep-01 18:54 134 2 gusting 8 17.8
2015-Sep-01 18:49 046 17.2
2015-Sep-01 18:43 227 1 gusting 10 17.2
2015-Sep-01 18:39 171 1 gusting 12 16.7
2015-Sep-01 18:34 190 9 gusting 12 16.7
2015-Sep-01 18:29 162 2 gusting 9 16.7
2015-Sep-01 18:23 147 6 gusting 9 16.7
2015-Sep-01 18:18 167 3 gusting 9 16.7
2015-Sep-01 18:14 188 5 gusting 9 16.7
2015-Sep-01 18:09 186 3 gusting 9 16.7
2015-Sep-01 18:04 153 1 gusting 9 16.7
2015-Sep-01 17:59 110 1 gusting 9 16.7
2015-Sep-01 17:54 191 7 gusting 10 16.7
2015-Sep-01 17:49 195 6 gusting 10 16.7
2015-Sep-01 17:44 255 0 gusting 8 16.1
2015-Sep-01 17:39 189 6 gusting 8 16.1
2015-Sep-01 17:34 186 0 gusting 9 16.1
2015-Sep-01 17:29 137 6 gusting 9 16.1
2015-Sep-01 17:24 156 2 gusting 9 16.1
2015-Sep-01 17:19 114 2 gusting 9 15.6
2015-Sep-01 17:14 171 2 gusting 6 15.6
2015-Sep-01 17:09 209 15.0
2015-Sep-01 17:04 126 15.0
2015-Sep-01 16:59 125 14.4
2015-Sep-01 16:54 133 14.4
2015-Sep-01 16:49 134 14.4
2015-Sep-01 16:44 134 14.4
2015-Sep-01 16:39 134 13.9
2015-Sep-01 16:34 133 13.9
2015-Sep-01 16:29 144 13.9
2015-Sep-01 16:24 196 0 gusting 1 13.9
2015-Sep-01 16:19 114 13.9
2015-Sep-01 16:14 046 13.9
2015-Sep-01 16:09 071 13.9
2015-Sep-01 16:04 080 13.9
2015-Sep-01 15:59 067 0 gusting 3 13.9
2015-Sep-01 15:54 082 13.9
2015-Sep-01 15:49 082 0 gusting 2 14.4
2015-Sep-01 15:44 119 0 gusting 2 14.4
2015-Sep-01 15:39 088 14.4
2015-Sep-01 15:34 114 14.4
2015-Sep-01 15:29 175 1 gusting 5 14.4
2015-Sep-01 15:24 130 14.4
2015-Sep-01 15:19 154 14.4
2015-Sep-01 15:14 080 1 gusting 5 14.4
2015-Sep-01 15:09 103 3 gusting 5 14.4
2015-Sep-01 15:04 145 1 gusting 3 13.9
2015-Sep-01 14:59 145 0 gusting 5 13.9
2015-Sep-01 14:54 063 1 gusting 5 13.9
2015-Sep-01 14:49 086 1 gusting 6 13.9
2015-Sep-01 14:44 167 2 gusting 6 13.9
2015-Sep-01 14:39 134 6 gusting 6 13.9
2015-Sep-01 14:34 169 0 gusting 6 13.9
2015-Sep-01 14:29 172 2 gusting 6 13.9
2015-Sep-01 14:24 159 1 gusting 2 13.9
2015-Sep-01 14:19 159 0 gusting 6 13.9
2015-Sep-01 14:14 156 1 gusting 6 13.9
2015-Sep-01 14:09 165 1 gusting 5 13.9
2015-Sep-01 14:04 159 3 gusting 5 13.9
2015-Sep-01 13:59 144 3 gusting 5 13.9
2015-Sep-01 13:54 115 2 gusting 2 13.9
2015-Sep-01 13:49 113 2 gusting 3 13.9
2015-Sep-01 13:44 113 13.9
2015-Sep-01 13:39 159 0 gusting 3 13.9
2015-Sep-01 13:34 157 2 gusting 3 13.9
2015-Sep-01 13:29 075 14.4
2015-Sep-01 13:24 076 14.4
2015-Sep-01 13:19 076 14.4
2015-Sep-01 13:14 071 0 gusting 5 13.9
2015-Sep-01 13:09 071 13.9
2015-Sep-01 13:04 073 2 gusting 9 13.9
2015-Sep-01 12:59 056 6 gusting 11 14.4
2015-Sep-01 12:54 038 8 gusting 14 14.4
2015-Sep-01 12:49 038 11 gusting 14 14.4
2015-Sep-01 12:44 009 6 gusting 16 14.4
2015-Sep-01 12:39 015 3 gusting 18 15.0
2015-Sep-01 12:34 009 14 gusting 18 15.0
2015-Sep-01 12:29 337 1 gusting 3 15.6
2015-Sep-01 12:24 296 0 gusting 3 16.1
2015-Sep-01 12:19 295 16.1
2015-Sep-01 12:14 295 0 gusting 2 16.1
2015-Sep-01 12:09 223 16.1
2015-Sep-01 12:04 223 2 gusting 2 16.1
2015-Sep-01 11:59 196 16.1
2015-Sep-01 11:54 172 16.1
2015-Sep-01 11:49 190 1 gusting 5 16.1
2015-Sep-01 11:44 176 16.1
2015-Sep-01 11:39 205 0 gusting 6 16.1
2015-Sep-01 11:34 241 6 gusting 6 16.1
2015-Sep-01 11:29 157 1 gusting 6 16.7
2015-Sep-01 11:24 187 16.7
2015-Sep-01 11:19 161 3 gusting 6 16.7
2015-Sep-01 11:14 186 3 gusting 3 16.7
2015-Sep-01 11:09 175 1 gusting 5 16.7
2015-Sep-01 11:04 214 1 gusting 5 16.7
2015-Sep-01 10:59 218 3 gusting 5 16.7
2015-Sep-01 10:54 105 16.7
2015-Sep-01 10:49 210 0 gusting 7 16.7
2015-Sep-01 10:44 225 7 gusting 7 16.7
2015-Sep-01 10:39 244 5 gusting 8 16.7
2015-Sep-01 10:34 321 2 gusting 9 16.7
2015-Sep-01 10:29 059 2 gusting 13 16.7
2015-Sep-01 10:24 199 5 gusting 21 16.7
2015-Sep-01 10:19 248 6 gusting 21 16.7
2015-Sep-01 10:14 161 9 gusting 21 16.7
2015-Sep-01 10:09 174 16 gusting 17 16.7
2015-Sep-01 10:04 165 3 gusting 14 16.7
2015-Sep-01 09:59 190 10 gusting 14 16.7
2015-Sep-01 09:54 180 14 gusting 14 17.2
2015-Sep-01 09:49 142 8 gusting 17 17.2
2015-Sep-01 09:44 227 6 gusting 19 17.2
2015-Sep-01 09:39 221 6 gusting 19 17.2
2015-Sep-01 09:34 178 13 gusting 20 17.2
2015-Sep-01 09:29 159 5 gusting 20 17.2
2015-Sep-01 09:24 214 7 gusting 19 17.2
2015-Sep-01 09:19 181 3 gusting 19 17.2
2015-Sep-01 09:14 166 12 gusting 24 17.2
2015-Sep-01 09:09 070 2 gusting 24 17.2
2015-Sep-01 09:04 219 3 gusting 20 17.2
2015-Sep-01 08:59 200 14 gusting 20 17.2
2015-Sep-01 08:54 175 6 gusting 19 17.2
2015-Sep-01 08:49 179 5 gusting 31 17.2
2015-Sep-01 08:44 290 5 gusting 31 17.2
2015-Sep-01 08:39 192 12 gusting 29 17.2
2015-Sep-01 08:34 176 17 gusting 29 17.2
2015-Sep-01 08:29 209 6 gusting 20 17.2
2015-Sep-01 08:23 211 10 gusting 20 17.2
2015-Sep-01 08:18 210 20 gusting 20 17.2
2015-Sep-01 08:14 117 1 gusting 19 17.2
2015-Sep-01 08:08 223 5 gusting 19 17.2
2015-Sep-01 08:03 128 6 gusting 18 17.2
2015-Sep-01 07:58 229 6 gusting 19 17.2
2015-Sep-01 07:53 178 7 gusting 25 17.2
2015-Sep-01 07:48 175 6 gusting 25 17.2
2015-Sep-01 07:43 118 7 gusting 19 17.2
2015-Sep-01 07:38 182 9 gusting 22 17.2
2015-Sep-01 07:33 200 2 gusting 24 17.2
2015-Sep-01 07:28 168 6 gusting 24 17.2
2015-Sep-01 07:23 172 8 gusting 19 17.2
2015-Sep-01 07:18 149 8 gusting 19 17.2
2015-Sep-01 07:13 214 3 gusting 17 17.2
2015-Sep-01 07:08 140 6 gusting 16 17.2
2015-Sep-01 07:03 126 5 gusting 16 17.2
2015-Sep-01 06:53 197 7 gusting 25 17.2
2015-Sep-01 06:48 152 5 gusting 18 17.2
2015-Sep-01 06:43 205 11 gusting 19 17.2
2015-Sep-01 06:38 194 15 gusting 21 17.2
2015-Sep-01 06:33 132 3 gusting 21 17.2
2015-Sep-01 06:28 175 15 gusting 18 17.2
2015-Sep-01 06:23 230 10 gusting 18 17.2
2015-Sep-01 06:18 194 7 gusting 24 17.2
2015-Sep-01 06:13 152 7 gusting 24 17.2
2015-Sep-01 06:08 263 1 gusting 17 17.2
2015-Sep-01 06:03 138 3 gusting 15 17.2
2015-Sep-01 05:59 219 12 gusting 15 17.2
2015-Sep-01 05:53 179 13 gusting 16 17.2
2015-Sep-01 05:48 170 3 gusting 16 17.2
2015-Sep-01 05:43 100 9 gusting 14 17.2
2015-Sep-01 05:38 193 6 gusting 14 17.2
2015-Sep-01 05:33 172 6 gusting 19 17.2
2015-Sep-01 05:28 186 9 gusting 19 17.2
2015-Sep-01 05:23 140 6 gusting 17 16.7
2015-Sep-01 05:19 165 5 gusting 20 16.7
2015-Sep-01 05:13 196 8 gusting 20 16.7
2015-Sep-01 05:09 126 9 gusting 16 16.7
2015-Sep-01 05:03 169 6 gusting 14 16.7
2015-Sep-01 04:59 163 6 gusting 17 16.7
2015-Sep-01 04:54 192 6 gusting 17 16.7
2015-Sep-01 04:48 124 2 gusting 14 16.7
2015-Sep-01 04:44 204 3 gusting 14 16.7
2015-Sep-01 04:39 178 14 gusting 14 16.7
2015-Sep-01 04:33 168 7 gusting 18 17.2
2015-Sep-01 04:28 153 6 gusting 18 17.2
2015-Sep-01 04:23 171 7 gusting 15 17.2
2015-Sep-01 04:18 207 8 gusting 16 17.2
2015-Sep-01 04:13 155 6 gusting 16 17.2
2015-Sep-01 04:09 188 5 gusting 13 17.2
2015-Sep-01 04:04 227 7 gusting 15 17.2
2015-Sep-01 03:59 144 6 gusting 15 17.2
2015-Sep-01 03:53 190 8 gusting 18 17.2
2015-Sep-01 03:48 125 8 gusting 18 17.2
2015-Sep-01 03:43 209 10 gusting 18 17.2
2015-Sep-01 03:39 163 2 gusting 14 17.2
2015-Sep-01 03:34 165 17.2
2015-Sep-01 03:29 182 6 gusting 13 17.2
2015-Sep-01 03:23 171 6 gusting 13 17.2
2015-Sep-01 03:19 173 9 gusting 11 17.2
2015-Sep-01 03:14 246 6 gusting 13 17.2
2015-Sep-01 03:09 234 11 gusting 13 17.2
2015-Sep-01 03:04 174 2 gusting 18 17.2
2015-Sep-01 02:59 190 7 gusting 18 17.2
2015-Sep-01 02:54 163 2 gusting 16 17.2
2015-Sep-01 02:49 184 3 gusting 14 17.2
2015-Sep-01 02:44 240 5 gusting 11 17.2
2015-Sep-01 02:39 173 2 gusting 11 17.8
2015-Sep-01 02:34 134 2 gusting 14 17.8
2015-Sep-01 02:29 159 3 gusting 17 17.8
2015-Sep-01 02:24 207 10 gusting 17 17.8
2015-Sep-01 02:19 190 7 gusting 12 17.8
2015-Sep-01 02:14 184 1 gusting 12 17.8
2015-Sep-01 02:09 187 6 gusting 16 18.3
2015-Sep-01 02:04 159 1 gusting 17 18.3